Back to catalog

NIMBUS 2 DEB

AliveSSO
NORAD 42440·DEBRIS·🇺🇸 United States

Launched May 15, 1966 from Vandenberg Space Force Base

Loading…

Next Passes (next 24 hours)

TLE

FreshSource: Space-Track

Epoch: Sep 13, 2026, 06:10 UTC

1 42440U 66040BT  26256.25711198  .00001225  00000-0  21357-2 0  9995
2 42440 100.2764  82.3377 0047483 326.6278  33.1862 13.45369322515042

Track NIMBUS 2 DEB in real time with AllMySat

Download on the App Store